This demonstration page uses our WeatherBlox Daily Observations layout. Learn more.

Left ArrowRight Arrow

38.89511, -77.03637

Hourly Observations for July 11, 2015

Temp ( °F °C ) Dew Point ( °F °C ) Humidity (%) Winds ( mph kmh ) Pressure ( in mb ) Visibility ( mi km ) Precip ( " mm )
12:52 am 00:52 Cloudy 81 27.2 66 18.9 61 61 NNW 8 13 30.05 1018 10 16 N/A
1:52 am 01:52 Cloudy 80 26.7 67 19.4 64 64 NNW 5 7 30.04 1017 10 16 N/A
2:52 am 02:52 Cloudy 79 26.1 69 20.6 72 72 N 5 7 30.03 1017 10 16 N/A
3:52 am 03:52 Cloudy with Light Rain 78 25.6 68 20 71 71 N N/A 30.04 1017 10 16 N/A
4:52 am 04:52 Cloudy 77 25 70 21.1 79 79 SSE 6 9 30.04 1017 10 16 N/A
5:52 am 05:52 Cloudy 76 24.4 70 21.1 82 82 SW 3 6 30.05 1018 10 16 N/A
6:15 am 06:15 Cloudy with Light Rain 75 24 70 21 83 83 SW 6 9 30.06 1018 10 16 N/A
6:30 am 06:30 Cloudy with Light Rain 75 24 70 21 83 83 SW 7 11 30.06 1018 7 11 N/A
6:52 am 06:52 Cloudy with Rain 75 23.9 71 21.7 88 88 SW 5 7 30.07 1018 4 6 0.03 0.76
6:58 am 06:58 Cloudy with Rain 75 24 72 22 89 89 SW 3 6 30.09 1019 4 6 N/A
7:04 am 07:04 Cloudy with Rain 75 24 72 22 89 89 SSW 3 6 30.06 1018 3 5 N/A
7:43 am 07:43 Cloudy with Light Rain 75 24 70 21 83 83 N N/A 30.09 1019 7 11 0.06 1.52
7:52 am 07:52 Cloudy with Light Rain 75 23.9 68 20 79 79 ENE 5 7 30.09 1019 10 16 0.06 1.52
8:46 am 08:46 Cloudy 75 24 66 19 74 74 NNE 8 13 30.12 1020 10 16 N/A
8:52 am 08:52 Cloudy 75 23.9 67 19.4 76 76 NNE 7 11 30.11 1020 10 16 N/A
9:52 am 09:52 Cloudy 78 25.6 66 18.9 67 67 ENE 5 7 30.10 1019 10 16 N/A
10:52 am 10:52 Mostly Cloudy 81 27.2 65 18.3 58 58 NE 7 11 30.10 1019 10 16 N/A
11:52 am 11:52 Mostly Cloudy 82 27.8 64 17.8 55 55 E 3 6 30.10 1019 10 16 N/A
12:52 pm 12:52 Mostly Cloudy 85 29.4 64 17.8 50 50 NE 7 11 30.09 1019 10 16 N/A
1:52 pm 13:52 Mostly Cloudy 84 28.9 63 17.2 49 49 VRB 7 11 30.09 1019 10 16 N/A
2:52 pm 14:52 Mostly Cloudy 85 29.4 62 16.7 46 46 ENE 6 9 30.07 1018 10 16 N/A
3:52 pm 15:52 Mostly Cloudy 86 30 62 16.7 45 45 N N/A 30.06 1018 10 16 N/A
4:52 pm 16:52 Mostly Cloudy 84 28.9 67 19.4 57 57 S 7 11 30.06 1018 10 16 N/A
5:52 pm 17:52 Partly Cloudy 85 29.4 68 20 57 57 S 6 9 30.06 1018 10 16 N/A
6:52 pm 18:52 Partly Cloudy 84 28.9 68 20 59 59 S 7 11 30.06 1018 10 16 N/A
7:52 pm 19:52 Partly Cloudy 83 28.3 66 18.9 57 57 S 6 9 30.07 1018 10 16 N/A
8:52 pm 20:52 Partly Cloudy 80 26.7 67 19.4 64 64 SSW 7 11 30.08 1019 10 16 N/A
9:52 pm 21:52 Partly Cloudy 79 26.1 67 19.4 67 67 SW 5 7 30.09 1019 10 16 N/A
10:52 pm 22:52 Partly Cloudy 78 25.6 68 20 71 71 WSW 6 9 30.09 1019 10 16 N/A
11:52 pm 23:52 Mostly Cloudy 77 25 71 21.7 82 82 SSE 5 7 30.08 1019 10 16 N/A

Powered by AerisWeather